Regional Weather Roundup
Issued by NWS

Home | Current Version | Previous Version | Graphics & Text | Print | Product List | Glossary On
Versions: 1 2 3 4 5 6 7 8 9 10 11 12 13 14 15 16 17 18 19 20 21 22 23 24 25 26 27 28 29 30 31 32 33 34 35 36 37 38 39 40 41 42 43 44 45 46 47 48 49 50
979
ASUS43 KIND 242209
RWRIN

WEATHER ROUNDUP FOR INDIANA
NATIONAL WEATHER SERVICE INDIANAPOLIS IN
500 PM EST FRI FEB 24 2017

NOTE: "FAIR" INDICATES FEW OR NO CLOUDS BELOW 12,000 FEET WITH NO
SIGNIFICANT WEATHER AND/OR OBSTRUCTIONS TO VISIBILITY.

* - STATION DOES NOT REPORT WEATHER SUCH AS PRECIPITATION OR FOG.

+ - STATION NOT QUALITY CONTROLLED BY THE NATIONAL WEATHER SERVICE.
    USE DATA WITH CAUTION...ESPECIALLY DEWPOINT AND RELATIVE
    HUMIDITY OBSERVATIONS.

INZ001>003-010>013-019-020-242300-
NORTHWEST INDIANA

CITY           SKY/WX    TMP DP  RH WIND       PRES   REMARKS
GARY /AIRPORT/ CLOUDY    41  39  93 NW8       29.47S
KNOX *+        CLOUDY    61  37  41 SW14      29.44R
LA PORTE +     CLOUDY    48  46  90 W10       29.46R FOG
MICHIGAN CITY+ CLOUDY    39  39 100 W7        29.47R
MONTICELLO +   CLOUDY    60  55  83 W12       29.48R
RENSSELAER +   CLOUDY    59  52  77 SW17G24   29.47R
VALPARAISO     PTSUNNY   47  43  86 NW7       29.45R

$$

LMZ046-743>745-242300-
SOUTHERN LAKE MICHIGAN

STATION/POSITION TIME  TEMP    WIND        PRES    WAVE
                       AIR SEA DIR/SP/G            HT
                 (UTC) (F)     (DEG/KT/KT) (MB)    (FT)
BURNS HARBOR     2140   36     300/  9/ 12  999.0R
MICHIGAN CITY    2140   36     230/ 13/ 14   N/A

$$

INZ004-005-014>016-021>024-242300-
NORTH CENTRAL INDIANA

CITY           SKY/WX    TMP DP  RH WIND       PRES   REMARKS
ELKHART        LGT RAIN  57  54  88 S13       29.44R
GOSHEN         TSTM      63  54  72 S20G32    29.44F
LOGANSPORT +   CLOUDY    64  54  68 S18G26    29.48R
PERU/GRISSOM   PTSUNNY   65  55  70 SW18      29.47S
ROCHESTER +    CLOUDY    66  55  68 S14G21    29.45S
SOUTH BEND     CLOUDY    61  58  90 SW12      29.44R
WARSAW +       CLOUDY    64  54  68 SW9G17    29.45S

$$

INZ006>009-017-018-025>027-242300-
NORTHEAST INDIANA

CITY           SKY/WX    TMP DP  RH WIND       PRES   REMARKS
ANGOLA *+      CLOUDY    64  55  72 S13       29.46F
AUBURN +       CLOUDY    66  52  59 SW7G18    29.48S
FORT WAYNE     CLOUDY    66  54  65 SW14      29.49R THUNDER
HUNTINGTON +   CLOUDY    63  56  79 SW14G23   29.49S
KENDALLVILLE + CLOUDY    64  55  71 S14G22    29.46F

$$

INZ028-029-035-036-043>045-051>053-242300-
WEST CENTRAL INDIANA

CITY           SKY/WX    TMP DP  RH WIND       PRES   REMARKS
LAFAYETTE      CLOUDY    61  53  75 W14G22    29.48R
TERRE HAUTE    CLOUDY    65  53  65 W18       29.52R

$$

INZ030>032-037>040-046>048-054>057-064-065-242300-
CENTRAL INDIANA

CITY           SKY/WX    TMP DP  RH WIND       PRES   REMARKS
CP ATTERBURY + CLOUDY    68  52  56 SW8       29.53R
COLUMBUS       LGT RAIN  68  55  64 S12G21    29.52F
FISHERS *+     CLOUDY    64  57  77 SW10G16   29.52
FRANKFORT +    CLOUDY    65  57  77 SW16G22   29.51S
GREENWOOD *+   CLOUDY    70  55  59 W8        29.53R
INDIANAPOLIS   LGT RAIN  63  55  75 SW17      29.51S
-EAGLE CREEK   LGT RAIN  64  55  72 SW10G24   29.51R
KOKOMO +       LGT RAIN  65  55  70 SW17G25   29.50S
MARION +       CLOUDY    64  56  75 SW14      29.51S
MT COMFORT *+  PTSUNNY   68  54  60 SW10      29.52R
SHELBYVILLE    PTSUNNY   70  52  52 S16G30    29.51R
ZIONSVILLE +   CLOUDY    64  55  70 SW13      29.52R

$$

INZ033-034-041-042-049-050-058-059-242300-
EAST CENTRAL INDIANA

CITY           SKY/WX    TMP DP  RH WIND       PRES   REMARKS
MUNCIE         PTSUNNY   66  54  65 W8        29.51R

$$

INZ060-061-067>069-081>083-085>088-242300-
SOUTHWEST INDIANA

CITY           SKY/WX    TMP DP  RH WIND       PRES   REMARKS
EVANSVILLE     LGT RAIN  70  53  54 W16G24    29.57R
HUNTINGBURG *+ CLOUDY    70  54  56 SW10      29.55S
WASHINGTON +   PTSUNNY   68  51  54 SW13G26   29.54R

$$

INZ062-063-066-070>080-084-089>092-242300-
SOUTH CENTRAL AND SOUTHEAST INDIANA

CITY           SKY/WX    TMP DP  RH WIND       PRES   REMARKS
BEDFORD +      TSTM      64  54  68 SW9       29.55R
BLOOMINGTON    CLOUDY    68  52  56 SW12      29.53F
MADISON *+     PTSUNNY   73  50  43 S15G21    29.58R
NORTH VERNON + CLOUDY    73  50  43 S10G16    29.54S
SEYMOUR +      CLOUDY    73  52  46 S10       29.52F

$$





USA.gov is the U.S. government's official web portal to all federal, state and local government web resources and services.